Time,TemperatureF,DewpointF,PressureIn,WindDirection,WindDirectionDegrees,WindSpeedMPH,WindSpeedGustMPH,Humidity,HourlyPrecipIn,Conditions,Clouds,dailyrainin,SoftwareType,DateUTC
2013-03-29 00:14:00,69.8,18.0,29.85,WNW,302,6.0,9.0,14,0.00,,,0.00,weatherlink.com 1.10,2013-03-29 06:14:00,
2013-03-29 01:12:00,70.3,17.0,29.85,West,262,6.0,12.0,13,0.00,,,0.00,weatherlink.com 1.10,2013-03-29 07:12:00,
2013-03-29 02:10:00,69.9,17.0,29.85,West,263,0.0,21.0,13,0.00,,,0.00,weatherlink.com 1.10,2013-03-29 08:10:00,
2013-03-29 04:03:00,67.8,17.0,29.84,West,265,8.0,13.0,14,0.00,,,0.00,weatherlink.com 1.10,2013-03-29 10:03:00,
2013-03-29 04:55:00,66.8,16.0,29.83,WNW,296,7.0,13.0,14,0.00,,,0.00,weatherlink.com 1.10,2013-03-29 10:55:00,
2013-03-29 06:43:00,68.1,17.0,29.87,WNW,289,2.0,13.0,14,0.00,,,0.00,weatherlink.com 1.10,2013-03-29 12:43:00,
2013-03-29 07:37:00,61.4,20.0,29.89,WNW,289,2.0,5.0,20,0.00,,,0.00,weatherlink.com 1.10,2013-03-29 13:37:00,
2013-03-29 08:27:00,62.8,21.0,29.91,East,80,2.0,4.0,20,0.00,,,0.00,weatherlink.com 1.10,2013-03-29 14:27:00,
2013-03-29 09:19:00,66.5,17.0,29.91,North,350,1.0,7.0,15,0.00,,,0.00,weatherlink.com 1.10,2013-03-29 15:19:00,
2013-03-29 10:11:00,70.8,17.0,29.91,NE,38,1.0,3.0,13,0.00,,,0.00,weatherlink.com 1.10,2013-03-29 16:11:00,
2013-03-29 11:06:00,76.1,18.0,29.91,NNE,28,7.0,12.0,11,0.00,,,0.00,weatherlink.com 1.10,2013-03-29 17:06:00,
2013-03-29 11:40:00,76.9,18.0,30.14,WNW,285,6.0,13.0,11,0.00,,,0.00,weatherlink.com 1.10,2013-03-29 17:40:00,
2013-03-29 11:56:00,77.7,19.0,30.14,West,275,6.0,9.0,11,0.00,,,0.00,weatherlink.com 1.10,2013-03-29 17:56:00,
2013-03-29 12:26:00,78.5,20.0,30.13,NNW,337,7.0,16.0,11,0.00,,,0.00,weatherlink.com 1.10,2013-03-29 18:26:00,
2013-03-29 12:41:00,78.7,18.0,30.13,WNW,299,4.0,16.0,10,0.00,,,0.00,weatherlink.com 1.10,2013-03-29 18:41:00,
2013-03-29 12:56:00,79.4,18.0,30.12,NNW,327,4.0,11.0,10,0.00,,,0.00,weatherlink.com 1.10,2013-03-29 18:56:00,
2013-03-29 13:12:00,79.2,18.0,30.11,WNW,292,7.0,15.0,10,0.00,,,0.00,weatherlink.com 1.10,2013-03-29 19:12:00,
2013-03-29 13:27:00,81.9,17.0,30.11,ESE,109,0.0,9.0,9,0.00,,,0.00,weatherlink.com 1.10,2013-03-29 19:27:00,
2013-03-29 13:42:00,82.1,18.0,30.10,NW,309,1.0,9.0,9,0.00,,,0.00,weatherlink.com 1.10,2013-03-29 19:42:00,
2013-03-29 13:57:00,81.6,17.0,30.09,SSW,198,4.0,8.0,9,0.00,,,0.00,weatherlink.com 1.10,2013-03-29 19:57:00,
2013-03-29 14:12:00,79.8,18.0,30.09,NW,305,12.0,16.0,10,0.00,,,0.00,weatherlink.com 1.10,2013-03-29 20:12:00,
2013-03-29 14:27:00,82.7,15.0,30.08,WSW,245,3.0,10.0,8,0.00,,,0.00,weatherlink.com 1.10,2013-03-29 20:27:00,
2013-03-29 14:43:00,81.4,14.0,30.07,SW,225,4.0,13.0,8,0.00,,,0.00,weatherlink.com 1.10,2013-03-29 20:43:00,
2013-03-29 14:58:00,82.2,15.0,30.06,WNW,294,2.0,14.0,8,0.00,,,0.00,weatherlink.com 1.10,2013-03-29 20:58:00,
2013-03-29 15:13:00,81.9,15.0,30.06,South,180,4.0,11.0,8,0.00,,,0.00,weatherlink.com 1.10,2013-03-29 21:13:00,
2013-03-29 15:28:00,82.2,15.0,30.06,WSW,246,2.0,14.0,8,0.00,,,0.00,weatherlink.com 1.10,2013-03-29 21:28:00,
2013-03-29 15:43:00,82.5,15.0,30.05,ENE,60,1.0,18.0,8,0.00,,,0.00,weatherlink.com 1.10,2013-03-29 21:43:00,
2013-03-29 15:59:00,83.7,16.0,30.04,West,264,4.0,9.0,8,0.00,,,0.00,weatherlink.com 1.10,2013-03-29 21:59:00,
2013-03-29 16:14:00,82.8,15.0,30.04,NW,314,5.0,20.0,8,0.00,,,0.00,weatherlink.com 1.10,2013-03-29 22:14:00,
2013-03-29 16:29:00,82.4,15.0,30.03,NW,311,10.0,14.0,8,0.00,,,0.00,weatherlink.com 1.10,2013-03-29 22:29:00,
2013-03-29 16:44:00,83.0,16.0,30.03,West,265,0.0,11.0,8,0.00,,,0.00,weatherlink.com 1.10,2013-03-29 22:44:00,
2013-03-29 16:59:00,82.9,12.0,30.02,SSW,204,7.0,11.0,7,0.00,,,0.00,weatherlink.com 1.10,2013-03-29 22:59:00,
2013-03-29 17:15:00,82.2,15.0,30.02,West,280,9.0,11.0,8,0.00,,,0.00,weatherlink.com 1.10,2013-03-29 23:15:00,
2013-03-29 17:30:00,81.7,12.0,30.02,NW,318,9.0,18.0,7,0.00,,,0.00,weatherlink.com 1.10,2013-03-29 23:30:00,
2013-03-29 17:45:00,81.6,15.0,30.02,West,267,8.0,11.0,8,0.00,,,0.00,weatherlink.com 1.10,2013-03-29 23:45:00,
2013-03-29 18:00:00,80.8,11.0,30.02,SSW,205,3.0,12.0,7,0.00,,,0.00,weatherlink.com 1.10,2013-03-30 00:00:00,
2013-03-29 18:15:00,80.4,11.0,30.02,WNW,292,3.0,14.0,7,0.00,,,0.00,weatherlink.com 1.10,2013-03-30 00:15:00,
2013-03-29 18:30:00,79.3,10.0,30.02,West,273,5.0,9.0,7,0.00,,,0.00,weatherlink.com 1.10,2013-03-30 00:30:00,
2013-03-29 18:45:00,78.5,9.0,30.03,West,273,7.0,13.0,7,0.00,,,0.00,weatherlink.com 1.10,2013-03-30 00:45:00,
2013-03-29 19:01:00,77.4,8.0,30.03,West,271,7.0,14.0,7,0.00,,,0.00,weatherlink.com 1.10,2013-03-30 01:01:00,
2013-03-29 19:46:00,75.3,10.0,30.04,NW,305,8.0,9.0,8,0.00,,,0.00,weatherlink.com 1.10,2013-03-30 01:46:00,
2013-03-29 20:01:00,74.3,12.0,30.04,NNW,328,4.0,4.0,9,0.00,,,0.00,weatherlink.com 1.10,2013-03-30 02:01:00,
2013-03-29 20:16:00,74.6,12.0,30.05,NW,314,7.0,11.0,9,0.00,,,0.00,weatherlink.com 1.10,2013-03-30 02:16:00,
2013-03-29 20:32:00,73.7,11.0,30.05,NNW,338,3.0,6.0,9,0.00,,,0.00,weatherlink.com 1.10,2013-03-30 02:32:00,
2013-03-29 20:47:00,73.7,9.0,30.05,WNW,298,5.0,8.0,8,0.00,,,0.00,weatherlink.com 1.10,2013-03-30 02:47:00,
2013-03-29 21:02:00,74.6,9.0,30.06,West,281,0.0,10.0,8,0.00,,,0.00,weatherlink.com 1.10,2013-03-30 03:02:00,
2013-03-29 21:17:00,73.4,8.0,30.06,West,279,0.0,14.0,8,0.00,,,0.00,weatherlink.com 1.10,2013-03-30 03:17:00,
2013-03-29 21:32:00,73.9,6.0,30.06,WNW,283,3.0,13.0,7,0.00,,,0.00,weatherlink.com 1.10,2013-03-30 03:32:00,
2013-03-29 21:47:00,73.7,9.0,30.07,NW,311,12.0,17.0,8,0.00,,,0.00,weatherlink.com 1.10,2013-03-30 03:47:00,
2013-03-29 22:02:00,73.5,9.0,30.07,WNW,298,6.0,13.0,8,0.00,,,0.00,weatherlink.com 1.10,2013-03-30 04:02:00,
2013-03-29 22:18:00,73.1,8.0,30.08,West,271,7.0,13.0,8,0.00,,,0.00,weatherlink.com 1.10,2013-03-30 04:18:00,
2013-03-29 22:33:00,73.2,8.0,30.08,NNW,331,9.0,15.0,8,0.00,,,0.00,weatherlink.com 1.10,2013-03-30 04:33:00,
2013-03-29 22:48:00,72.5,8.0,30.08,West,277,8.0,12.0,8,0.00,,,0.00,weatherlink.com 1.10,2013-03-30 04:48:00,
2013-03-29 23:04:00,72.0,7.0,30.08,WNW,284,4.0,10.0,8,0.00,,,0.00,weatherlink.com 1.10,2013-03-30 05:04:00,
2013-03-29 23:19:00,71.4,7.0,30.09,NW,305,6.0,14.0,8,0.00,,,0.00,weatherlink.com 1.10,2013-03-30 05:19:00,
2013-03-29 23:34:00,71.7,4.0,30.08,WNW,302,8.0,13.0,7,0.00,,,0.00,weatherlink.com 1.10,2013-03-30 05:34:00,
2013-03-29 23:49:00,71.9,4.0,30.09,WNW,285,6.0,10.0,7,0.00,,,0.00,weatherlink.com 1.10,2013-03-30 05:49:00,